アトラス彗星

C/2020 P3 ( ATLAS )

English version
Home page
Updated on November 6, 2022

---------------------------------------------------------------------

・ プロフィール

発見日 2020年8月9日
発見光度 19.0等
発見者 Asteroid Terrestrial-Impact Last Alert System (ATLAS) search program

・ 写真集

・ 軌道要素

Epoch 2022 Aug. 9.0 TT = JDT 2459800.5
T 2021 Apr. 20.97332 TT                                 Rudenko
q   6.8123398            (2000.0)            P               Q
z  -0.0000607      Peri.   82.25694     -0.02858028     -0.95538943
 +/-0.0000008      Node    19.46800     +0.09742655     -0.29534531
e   1.0004135      Incl.   61.88808     +0.99483227     +0.00147681
>From 639 observations 2020 Aug. 9-2022 Oct. 25, mean residual 0".5.

・ 光度変化

        m1 = -3.5 + 5 logΔ + 20.0 log r(t - 150)

---------------------------------------------------------------------

軌道要素はM.P.E.C. 2022-U349に掲載されたものです。
光度グラフはComet for Windowsで作成したものです。

---------------------------------------------------------------------

Copyright(C) Seiichi Yoshida (comet@aerith.net). All rights reserved.